This is the latest recevied weather packets stored in our database for station/object KC1TEM-13. If no packets are shown the sender has not sent any weather packets the latest 10 day(s).
| Time | Temp. | Humidity | Pressure | Rain* | Wind** | Luminosity | Snow |
|---|---|---|---|---|---|---|---|
| 1788034311 | 25° C | 40% | 1021.4 hPa | 0 mm | - | 82 W/m² | - |
| 1788034010 | 25° C | 39% | 1021.3 hPa | 0 mm | - | 67 W/m² | - |
| 1788033705 | 25° C | 40% | 1021.5 hPa | 0 mm | - | 71 W/m² | - |
| 1788033404 | 25.56° C | 37% | 1021.4 hPa | 0 mm | - | 210 W/m² | - |
| 1788033100 | 25.56° C | 38% | 1021.3 hPa | 0 mm | - | 109 W/m² | - |
| 1788032800 | 25.56° C | 40% | 1021.4 hPa | 0 mm | - | 422 W/m² | - |
| 1788032498 | 25.56° C | 41% | 1021.6 hPa | 0 mm | - | 386 W/m² | - |
| 1788032190 | 26.67° C | 38% | 1021.6 hPa | 0 mm | - | 529 W/m² | - |
| 1788031886 | 26.67° C | 37% | 1021.7 hPa | 0 mm | - | 547 W/m² | - |
| 1788031586 | 26.67° C | 38% | 1021.7 hPa | 0 mm | - | 559 W/m² | - |
| 1788031285 | 26.11° C | 40% | 1021.8 hPa | 0 mm | - | 575 W/m² | - |
| 1788030985 | 26.11° C | 39% | 1021.6 hPa | 0 mm | - | 591 W/m² | - |
| 1788030685 | 25° C | 42% | 1021.8 hPa | 0 mm | - | 604 W/m² | - |
| 1788030380 | 25.56° C | 40% | 1021.9 hPa | 0 mm | - | 620 W/m² | - |
| 1788030075 | 25.56° C | 41% | 1021.8 hPa | 0 mm | - | 632 W/m² | - |
| 1788029775 | 25.56° C | 42% | 1021.6 hPa | 0 mm | - | 642 W/m² | - |
| 1788029470 | 26.11° C | 40% | 1022 hPa | 0 mm | - | 650 W/m² | - |
| 1788029169 | 26.11° C | 40% | 1022 hPa | 0 mm | - | 657 W/m² | - |
| 1788028869 | 25.56° C | 39% | 1022.1 hPa | 0 mm | - | 655 W/m² | - |
| 1788028567 | 25.56° C | 39% | 1022.2 hPa | 0 mm | - | 650 W/m² | - |
| 1788028259 | 25.56° C | 40% | 1022.1 hPa | 0 mm | - | 656 W/m² | - |
| 1788027955 | 26.11° C | 37% | 1022.3 hPa | 0 mm | - | 658 W/m² | - |
| 1788027655 | 26.67° C | 37% | 1022.3 hPa | 0 mm | - | 680 W/m² | - |
| 1788027350 | 26.11° C | 39% | 1022.2 hPa | 0 mm | - | 683 W/m² | - |
| 1788027049 | 25.56° C | 43% | 1022.4 hPa | 0 mm | - | 705 W/m² | - |
* Rain latest hour (hover to see other rain measurements)
** Current wind speed in m/s (hover to see current wind gust speed)